Regional Weather Roundup
Issued by NWS

Home | Current Version | Previous Version | Graphics & Text | Print | Product List | Glossary On
Versions: 1 2 3 4 5 6 7 8 9 10 11 12 13 14 15 16 17 18 19 20 21 22 23 24 25 26 27 28 29 30 31 32 33 34 35 36 37 38 39 40 41 42 43 44 45 46 47 48 49 50
000
ASUS45 KCYS 182110
RWRWY

WYOMING REGIONAL WEATHER ROUNDUP
NATIONAL WEATHER SERVICE CHEYENNE WY
300 PM MDT SAT APR 18 2015

NOTE:  "FAIR" INDICATES FEW OR NO CLOUDS BELOW 12,000 FEET
WITH NO SIGNIFICANT WEATHER AND/OR OBSTRUCTIONS TO VISIBILITY.

WYZ001-182200-
YELLOWSTONE NATIONAL PARK

CITY           SKY/WX    TMP DP  RH WIND       PRES   REMARKS
LK YELLOWSTONE   N/A     50  15  24 VRB5      30.11S
W YELLOWSTONE  NOT AVBL

$$
WYZ002>013-054>058-071-098>099-182200-
NORTHERN WYOMING

CITY           SKY/WX    TMP DP  RH WIND       PRES   REMARKS
JACKSON        FAIR      61  19  20 N12G17    30.02S
CODY           CLOUDY    57  28  33 N17G24    30.02S
GREYBULL       FAIR      67  27  22 NW31G46   29.93S
WORLAND        FAIR      68  26  20 N30G41    29.91S
SHERIDAN       PTSUNNY   62  34  35 NW28G35   29.98R
BUFFALO        FAIR      62  30  29 NW32G43   29.96R
GILLETTE       PTSUNNY   61  40  45 NE13      29.91F
HULETT         LGT RAIN  50  37  62 E8        29.95S
NEWCASTLE      LGT RAIN  46  45  93 W3        29.94S

$$
WYZ014>020-022>026-101>103-182200-
CENTRAL WYOMING

CITY           SKY/WX    TMP DP  RH WIND       PRES   REMARKS
BIG PINEY      FAIR      63  15  15 N23G30    29.99S
PINEDALE       CLOUDY    55  14  19 N7        29.98F
DUBOIS         FAIR      59  14  17 N18G25    29.98S
LANDER         FAIR      62  26  25 N26       29.94F
RIVERTON       FAIR      63  25  23 N29G37    29.95S
CASPER         CLOUDY    39  35  86 SE12      29.96S WCI  32
DOUGLAS        LGT RAIN  41  38  89 N6        29.96S

$$
WYZ021-027>030-104>119-182200-
SOUTHERN WYOMING

CITY           SKY/WX    TMP DP  RH WIND       PRES   REMARKS
EVANSTON       FAIR      59  22  24 N17G29    30.02F
KEMMERER       FAIR      59  18  20 NW23G31   30.01S
FORT BRIDGER   CLOUDY    55  27  33 N12G21    30.02S
ROCK SPRINGS   CLOUDY    55  23  28 N14       29.96S
DIXON          LGT RAIN  38  35  92 SE3       30.01R
RAWLINS        LGT RAIN  40  36  86 N23G32    29.99R WCI  30
SARATOGA       SNOW      32  32 100 W6        29.97R VSB 1/4 WCI  26
LARAMIE        CLOUDY    34  31  88 NW8       29.93S WCI  27
CHEYENNE       FAIR      43  35  73 NW7       29.90F
TORRINGTON     FAIR      55  39  54 VRB3      29.87F
PINE BLUFFS    CLOUDY    45  34  65 NE3       29.91R THUNDER

$$


USA.gov is the U.S. government's official web portal to all federal, state and local government web resources and services.